Preview of NWS' New Version of Forecast
This preview is not operational and should not be used for support decisions.
Latest weather observations around

Hot Springs, Memorial Field Airport (KHOT)

Using English Units (Switch to International System of Units)
Date/ Time (CDT) Wind (mph) Vis. (mi) Weather Sky Cond. Temp (°F) Rel. Humidity Wind Chill (°F) Heat Index (°F) Pressure Precip. (in)
Air Dwpt 6 hour Altimeter (inHg) Sea level (inHg) 1 hr 3 hr 6 hr
Max Min
Apr 22 23:53 W 6 10 Cloudy OVC013 54 51     90%     29.93 29.92      
Apr 22 23:22 5 10 Cloudy OVC014 54 51     90%     29.93        
Apr 22 22:53 W 6 10 Cloudy OVC015 54 51     90%     29.94 29.93      
Apr 22 21:53 6 10 Cloudy OVC015 55 51     86%     29.94 29.93      
Apr 22 20:53 WNW 6 10 Cloudy OVC016 55 51     86%     29.94 29.93      
Apr 22 20:26 W 8 10 Cloudy OVC015 55 51     86%     29.93        
Apr 22 19:53 NW 7 10 Cloudy OVC014 55 51     86%     29.93 29.92      
Apr 22 18:53 NW 10 10 Cloudy OVC016 56 51     84%     29.92 29.91      
Apr 22 17:53 6 10 Cloudy BKN020 BKN029 OVC040 58 51     78%     29.91 29.9      
Apr 22 16:53 NW 8 10 Cloudy OVC020 59 52     78%     29.91 29.9      
Apr 22 15:53 W 7 10 Cloudy OVC018 59 53     81%     29.91 29.9      
Apr 22 14:53 6 10 Cloudy OVC017 60 54     80%     29.93 29.91      
Apr 22 13:53 7 10 Cloudy OVC020 61 54     78%     29.93 29.92      
Apr 22 12:53 6 10 Cloudy BKN016 BKN022 OVC026 61 55     81%     29.93 29.92     0
Apr 22 12:24 NW 9 10 Cloudy OVC016 61 55     81%     29.93        
Apr 22 11:53 6 10 Cloudy FEW009 BKN014 OVC021 60 56     86%     29.94 29.93      
Apr 22 11:51 NW 7 10 Cloudy FEW009 BKN014 OVC019 61 55     82%     29.94        
Apr 22 11:40 NW 13 10 Cloudy FEW009 SCT013 OVC019 59 56     90%     29.94        
Apr 22 11:10 NNW 8 10 Mostly Cloudy SCT014 BKN020 BKN025 63 57     81%     29.93        
Apr 22 10:53 6 10 Cloudy BKN012 BKN017 OVC055 61 57     87%     29.93 29.92      
Apr 22 10:42 NW 9 10 Cloudy SCT012 BKN016 OVC060 61 57     87%     29.93        
Apr 22 10:31 NW 7 10 Cloudy BKN012 OVC036 61 58     90%     29.93        
Apr 22 10:23 6 10 Cloudy FEW008 BKN033 OVC040 60 57     90%     29.93        
Apr 22 10:02 NW 9 10 Cloudy SCT008 BKN014 OVC040 60 58     93%     29.93        
Apr 22 09:53 NW 8 10 Cloudy BKN008 BKN014 OVC027 59 58     96%     29.93 29.92 0 0  
Apr 22 09:24 NNW 5 10 Cloudy FEW006 SCT013 OVC022 59 58     96%     29.93   0    
Apr 22 09:17 N 6 8 Cloudy FEW006 BKN013 OVC021 59 58     96%     29.93   0    
Apr 22 09:03 NNW 6 3 Light Rain and Fog/Mist BKN004 OVC012 58 58     100%     29.93   0    
Apr 22 08:53 N 6 2.5 Light Rain and Fog/Mist OVC003 58 58     100%     29.93 29.92 0    
Apr 22 08:40 5 4 Fog/Mist BKN004 OVC007 59 59     100%     29.92        
Apr 22 08:29 3 2.5 Fog/Mist OVC004 59 59     100%     29.92        
Apr 22 08:04 Calm 1.75 Fog/Mist BKN002 OVC006 59 59     100%     29.93        
Apr 22 07:53 Calm 6 Fog/Mist OVC006 59 59     100%     29.93 29.92      
Apr 22 06:53 Calm 8 Cloudy OVC005 59 59     100%     29.93 29.91 0   0
Apr 22 05:53 Calm 6 Fog/Mist OVC007 59 59     100%     29.93 29.91 0    
Apr 22 05:41 ESE 3 3 Light Rain and Fog/Mist OVC009 59 59     100%     29.93   0    
Apr 22 04:53 ESE 3 10 Cloudy OVC013 59 59     100%     29.92 29.91      
Apr 22 04:50 SE 3 10 Cloudy OVC013 59 59     100%     29.92        
Notice The following observation data may not be complete
Apr 22 04:28   10 Cloudy SCT007 OVC017          %              
Apr 22 03:53 ESE 5 10 Cloudy OVC008 58 58     100%     29.93 29.91      
Apr 22 03:35 E 5 10 Mostly Cloudy BKN009 BKN055 58 58     100%     29.91        
Apr 22 03:25 E 3 10 Mostly Cloudy SCT009 BKN055 58 58     100%     29.92        
Apr 22 02:53 E 6 10 Partly Cloudy FEW055 SCT110 58 58     100%     29.92 29.91      
Apr 22 02:30 E 6 10 Cloudy FEW010 BKN060 OVC110 58 58     100%     29.94        
Apr 22 02:19 ENE 3 10 Cloudy BKN010 OVC060 59 58     96%     29.95        
Apr 22 01:53 E 3 10 Cloudy OVC009 59 58     96%     29.96 29.95      
Apr 22 00:53 E 6 10 Cloudy OVC010 59 58     96%     29.97 29.96 0   1
Apr 22 00:33 7 10 Light Rain BKN010 BKN029 OVC120 58 58     100%     29.98   0    
Apr 22 00:00   7 Light Rain FEW007 BKN075 OVC100 58 57     97%     29.95   0    
Apr 21 23:53   7 Light Rain SCT055 OVC075 58 57     97%     29.94   0    
Apr 21 22:53   4 Rain and Fog/Mist BKN050 OVC070 57 57     100%     30.01 30 0    
Apr 21 22:35 S 6 5 Thunderstorms and Rain and Fog/Mist BKN048 OVC060 57 57     100%     30.06   0    
Apr 21 21:53 E 6 4 Rain and Fog/Mist OVC075 58 57     97%     30.03 30.02 0 0  
Apr 21 20:53 E 6 6 Rain and Fog/Mist FEW047 SCT070 OVC085 58 57     97%     30.02 30.01 0    
Apr 21 19:53 E 7 9 Light Rain FEW050 OVC085 60 58     93%     30.02 30.01 0    
Apr 21 18:53 ESE 3 10 Cloudy FEW080 OVC100 62 56     80%     30 29.99 0   0
Apr 21 17:53 ESE 10 10 Light Rain FEW060 OVC100 66 52     61%     29.99 29.98 0    
Apr 21 16:53 ESE 9 10 Mostly Cloudy BKN065 69 50     51%     30.04 30.03      
Apr 21 15:53 ESE 7 10 Clear CLR 69 49     49%     30.04 30.04      
Apr 21 14:53 SE 10 10 Clear CLR 69 48     47%     30.05 30.04      
Apr 21 13:53 SE 15 10 Clear CLR 70 49     47%     30.04 30.03      
Apr 21 12:53 ESE 8 10 Clear CLR 69 48     47%     30.09 30.08      
Apr 21 11:53 SE 13 10 Clear CLR 66 46     48%     30.11 30.1      
Apr 21 10:53 SE 9 10 Clear CLR 63 46     54%     30.15 30.14      
Apr 21 09:53 E 8 10 Clear CLR 60 45     57%     30.17 30.16      
Apr 21 08:53 E 7 10 Clear CLR 56 43     62%     30.16 30.16      
Apr 21 07:53 SE 3 10 Mostly Clear FEW042 52 43     71%     30.18 30.17      
Apr 21 06:53 Calm 10 Clear CLR 48 45     89%     30.17 30.17      
Apr 21 05:53 Calm 10 Clear CLR 48 43     83%     30.16 30.16      
Apr 21 04:53 E 5 10 Clear CLR 51 42     71%     30.16 30.15      
Apr 21 03:53 Calm 10 Clear CLR 47 42     83%     30.17 30.16      
Apr 21 02:53 Calm 10 Clear CLR 49 39     69%     30.17 30.16      
Apr 21 01:53 E 6 10 Clear CLR 52 38     59%     30.17 30.16      
Apr 21 00:53 E 3 10 Clear CLR 49 39     69% 48   30.19 30.18      
Apr 20 23:53 Calm 10 Clear CLR 51 38     61%     30.19 30.18      
Apr 20 22:53 E 5 10 Clear CLR 56 37     49%     30.19 30.19      
Apr 20 21:53 E 6 10 Clear CLR 53 38     56%     30.2 30.19      
Apr 20 20:53 E 7 10 Clear CLR 57 37     47%     30.19 30.19      
Apr 20 19:53 E 8 10 Clear CLR 62 34     35%     30.19 30.19      
Apr 20 18:53 E 9 10 Clear CLR 66 32     28%     30.19 30.18      
Apr 20 17:53 E 10 10 Clear CLR 68 32     26%     30.2 30.19      
Apr 20 16:53 E 11 10 Clear CLR 68 32     26%     30.22 30.21      
Apr 20 15:53 ENE 9 10 Clear CLR 68 32     26%     30.25 30.24      
Apr 20 14:53 ESE 14 10 Clear CLR 66 32     28%     30.28 30.27      
Apr 20 13:53 ESE 9 10 Clear CLR 65 33     30%     30.32 30.31      
Apr 20 12:53 E 11 10 Clear CLR 62 33     34%     30.35 30.34      
Apr 20 11:53 ESE 14 10 Clear CLR 60 34     37%     30.36 30.35      
Apr 20 10:53 E 9 10 Clear CLR 57 34     42%     30.39 30.38      
Apr 20 09:53 E 13 10 Clear CLR 54 36     50%     30.4 30.4      
Apr 20 08:53 E 10 10 Clear CLR 50 36     58% 46   30.42 30.41      
Apr 20 07:53 E 6 10 Clear CLR 47 37     68% 44   30.41 30.4      
Apr 20 05:53 Calm 10 Clear CLR 42 35     76%     30.37 30.37      
Apr 20 04:53 ENE 8 10 Clear CLR 43 35     73% 38   30.34 30.34      
Apr 20 03:53 E 5 10 Clear CLR 44 35     70% 41   30.36 30.36      
Apr 20 02:53 E 7 10 Clear CLR 45 35     68% 41   30.36 30.36      
Apr 20 01:53 E 7 10 Clear   46 34     63% 42   30.37 30.36      
Apr 20 00:53 E 8 10 Clear CLR 45 35     68% 41   30.36 30.36      
Jun 11 21:53 SE 8 10 Clear   82 72     72%   87 29.98 29.96      
Jun 10 21:53 ESE 3 10 Clear CLR 76 63     64%   76 29.95 29.93      
Jun 10 10:53 S 10 10 Clear CLR 80 62     54%   81 30 29.98      
Jun 08 18:53 NE 9 10 Clear   80 54     41%   80 29.92 29.9      
Jun 08 13:53   10 Clear CLR 83 55     38%   82 29.99 29.98      
Jun 08 07:53 Calm 10 Clear CLR 64 59     84%     30.03 30.02      
Jun 06 10:53 ENE 10 10 Mostly Clear FEW033 83 71     67%   88 29.85 29.83      
Jun 06 01:07 Calm 10 Partly Cloudy SCT016 70 69     97%     29.81        
Notice The following observation data may not be complete
Jun 05 15:38   10 Mostly Clear FEW006          %